全球星 M004星 (GLOBALSTAR M004)

导读 | 星芒AI

GLOBALSTAR M004 是全球星(Globalstar)卫星通信系统的一部分,属于低轨移动卫星通信星座。该卫星主要用于提供语音和数据通信服务,支持偏远地区的移动通信需求。它运行在约1414公里的近地轨道,设计寿命约为12至15年。M004 卫星采用先进的通信技术,与地面基站和用户终端进行数据中继,广泛应用于应急通信、海上通信和陆地移动通信等领域。该系统由多颗卫星组成,共同实现全球范围的覆盖与连接。

基本信息
目录编号:
25163
目录名称:
GLOBALSTAR M004
国际标识:
1998-008B
轨道中心:
EARTH
卫星名称:
全球星 M004星
卫星全名:
全球星 M004星 (GLOBALSTAR M004)
卫星状态:
在轨 (已飞行10119 天)
发射日期:
1998-02-14 UTC
国别 :
(GLOB)
星等 :
--
轨道信息
数据来源 国际轨道数据
星历时间: 2025-10-29T19:55:00+0800
5小时前
查看轨道信息
半长轴: 7787.052km
偏心率: 0.0003015
轨道倾角: 52.003°
近地点辐角 220.896°
升交点赤经 4.403°
平近点角 243.617°
近地点: 1406.569km
远地点: 1411.265km
周期: 113.978分钟
每日圈数: 12.634068
详细信息
固有亮度:
5
最大亮度:
7.9
平衡模式:
三轴稳定
覆盖范围:
全球
运营商:
全球星公司
运营商所在国:
美国
使用方式:
暂无
卫星简介
全球星星座由48颗卫星加8颗备份星组成。这些卫星分布在8个倾角为52度的圆形轨道平面上,每个轨道平面6颗卫星,另有1 颗备用星。轨道高度约为1414km,传输时延和处理时延小于300ms,整个系统的覆盖区为南北纬70度以内的地区。该卫星仍在工作。
2D轨道图
3D轨道图
轨道高度分析图
轨道倾角分析图
轨道综合分析图
查看轨道综合分析图